Regional Weather Roundup
Issued by NWS

Home | Current Version | Previous Version | Graphics & Text | Print | Product List | Glossary On
Versions: 1 2 3 4 5 6 7 8 9 10 11 12 13 14 15 16 17 18 19 20 21 22 23 24 25 26 27 28 29 30 31 32 33 34 35 36 37 38 39 40 41 42 43 44 45 46 47 48 49 50
000
ASUS43 KBIS 191710
RWRND

NORTH DAKOTA REGIONAL WEATHER ROUNDUP
NATIONAL WEATHER SERVICE BISMARCK ND
1100 AM CST THU JAN 19 2017

NOTE: "FAIR" INDICATES FEW OR NO CLOUDS BELOW 12,000 FEET WITH NO
SIGNIFICANT WEATHER AND/OR OBSTRUCTIONS TO VISIBILITY.


NDZ001>003-009>011-017-191800-
NORTHWEST NORTH DAKOTA

CITY           SKY/WX    TMP DP  RH WIND       PRES   REMARKS
WILLISTON      FAIR      23  17  78 SW5       29.51R WCI  17
MINOT          FAIR      35  26  69 SW9       29.47S
MINOT AFB      CLOUDY    29  24  81 W8        29.46F
$$

NDZ018>021-031>035-040>046-191800-
SOUTHWEST NORTH DAKOTA

CITY           SKY/WX    TMP DP  RH WIND       PRES   REMARKS
BISMARCK       FAIR      18  11  74 CALM      29.54R
DICKINSON      FAIR      29  19  66 CALM      29.47S
GARRISON         N/A     18  14  84 CALM      29.49F
HETTINGER ARPT CLOUDY    23  16  74 NW5       29.51S WCI  17
$$

NDZ004>008-012>016-024-026-027-054-191800-
NORTHEAST NORTH DAKOTA

CITY           SKY/WX    TMP DP  RH WIND       PRES   REMARKS
GRAND FORKS    CLOUDY    25  21  85 S20       29.58F FOG     WCI  11
GRND FRKS AFB  CLOUDY    24  23  93 S13       29.57S FOG     WCI  13
DEVILS LAKE    FAIR      25  20  81 SE7       29.52S WCI  17
$$

NDZ022-023-025-028>030-036>039-047>053-191800-
SOUTHEAST NORTH DAKOTA

CITY           SKY/WX    TMP DP  RH WIND       PRES   REMARKS
FARGO          CLOUDY    33  31  92 S10       29.63R
JAMESTOWN      FAIR      19  16  88 S10       29.55S WCI   7
$$





USA.gov is the U.S. government's official web portal to all federal, state and local government web resources and services.